Location: *
(90.0000°N, 180.0000°W)
Time: 08:41:48
(UTC+00:00)

Daily predictions for brighter satellites

Satellite Brightness Start Highest point End
(mag) Time Altitude Azimuth Time Altitude Azimuth Time Altitude Azimuth
USA 186 4.1 12:00:51 10° WNW 12:02:42 18° NNW 12:04:29 10° NNE
ALOS 4.3 12:01:06 10° NW 12:05:22 33° NNE 12:09:38 10° ENE
Sich 1 4.5 12:01:53 10° N 12:05:44 31° WNW 12:09:33 10° SW
Cosmos 1340 Rocket 4.1 12:02:51 11° SSW 12:05:52 24° SE 12:09:06 10° E
Cosmos 1400 Rocket 4.4 12:02:40 10° SSE 12:05:56 24° E 12:09:14 10° NE
Meteor 1-28 Rocket 4.2 12:03:47 10° SSE 12:07:11 29° SSW 12:10:33 10° W
Cosmos 2221 3.4 12:03:37 10° SSW 12:07:21 31° SE 12:11:10 10° ENE
Helios 1B rocket 3.8 12:04:14 10° NE 12:07:49 28° ESE 12:11:25 10° SSE
EO 1 Del DPAF 4.5 12:04:46 10° ENE 12:08:01 26° SE 12:10:57 12° S
Iridium 96 4.3 12:06:57 10° W 12:09:28 36° SSW 12:11:49 10° SE
CZ-4 R/B 3.7 12:06:31 10° WNW 12:10:18 30° N 12:14:05 10° NE
Cosmos 1908 4.1 12:07:44 10° SW 12:11:06 28° S 12:14:27 10° ESE
Cosmos 1470 3.6 12:09:22 10° WSW 12:12:50 29° SSW 12:16:17 10° SE
CZ-2C R/B 4.5 12:09:18 10° ESE 12:13:14 29° SSE 12:17:11 10° SW
Okean 2 Rocket 4.0 12:10:11 10° WNW 12:14:14 33° SW 12:18:13 10° S
Cosmos 1733 Rocket 4.1 12:11:43 10° NW 12:15:42 32° W 12:19:30 11° SSW
CZ-2D R/B 3.5 12:12:41 10° N 12:17:27 34° ENE 12:22:13 10° SE
Iridium 4 Rocket 3.8 12:12:58 10° SSE 12:17:42 62° ENE 12:22:54 10° N
Cosmos 405 Rocket 4.0 12:14:45 10° W 12:18:04 25° SW 12:21:23 10° SSE
Cosmos 1733 4.1 12:16:08 10° W 12:19:29 28° SSW 12:22:50 10° SE
CZ-4B R/B 2.6 12:17:19 11° S 12:19:40 22° SW 12:22:12 10° W
SL-16 R/B 3.2 12:13:57 10° S 12:19:47 37° WSW 12:25:35 10° NW
Cosmos 2263 Rocket 4.0 12:18:32 10° WSW 12:20:00 11° SW 12:21:27 10° SSW
Cosmos-2242 3.8 12:16:40 10° SW 12:20:31 32° SSE 12:24:22 10° E
ADEOS II 3.6 12:20:57 10° N 12:25:47 35° ENE 12:30:37 10° SE
Okean 1-7 4.5 12:22:48 10° SE 12:26:36 31° E 12:30:23 10° NNE
SKYMED 2 4.3 12:24:58 10° SE 12:28:53 31° S 12:32:47 10° WSW
ERS-1 Rocket 4.4 12:24:46 10° WSW 12:29:22 33° NW 12:33:58 10° N
Cosmos 1606 Rocket 4.2 12:26:47 10° WSW 12:30:39 32° SSW 12:34:31 10° SE
GP-B 3.2 12:28:43 10° ESE 12:33:12 88° NNE 12:37:42 10° WNW
Cosmos 1184 Rocket 4.3 12:33:27 10° WSW 12:35:53 19° SSW 12:38:18 10° SSE
Okean 1 Rocket 3.9 12:32:04 10° WNW 12:36:05 33° SW 12:40:07 10° SSE
Cosmos 1300 Rocket 4.4 12:32:24 10° WNW 12:36:21 32° WSW 12:40:18 10° S
Cosmos 1869 4.4 12:34:08 11° SSW 12:37:23 29° SE 12:40:53 10° ENE
CZ-4C R/B 4.2 12:34:51 11° S 12:37:35 25° SW 12:40:36 10° WNW
Cosmos 1633 Rocket 4.4 12:34:03 10° N 12:37:56 32° WNW 12:41:48 10° SW
ERS-2 3.7 12:35:42 11° SSW 12:38:32 23° W 12:41:34 10° NW
Cosmos 2227 Rocket 4.2 12:38:00 10° W 12:39:41 11° WSW 12:41:20 10° WSW
S3M 4.5 12:35:36 10° NW 12:41:31 46° WSW 12:47:30 10° S
Mayak -0.1 12:38:13 10° ENE 12:41:58 31° SE 12:45:29 11° S
Cosmos 1500 4.5 12:38:47 10° NW 12:42:02 27° W 12:45:05 11° SSW
ASTEX 1 3.4 12:37:31 10° ESE 12:42:26 65° S 12:47:22 10° W
Intercosmos 25 4.0 12:42:26 10° W 12:45:11 26° SSW 12:48:20 10° SSE
Cosmos 2297 Rocket 4.2 12:43:52 10° W 12:45:24 11° WSW 12:46:57 10° WSW
Cosmos 1536 4.0 12:42:54 10° NW 12:46:24 29° W 12:49:38 11° SSW
Cosmos 1743 3.9 12:43:30 10° NW 12:46:53 28° WSW 12:49:59 11° S
Cosmos 1825 4.1 12:44:24 10° NNE 12:47:39 27° NW 12:50:53 10° W
ARIANE 5 R/B 4.1 12:44:10 10° N 12:48:46 33° ENE 12:53:18 10° SE
Cosmos 1812 Rocket 4.3 12:45:04 10° WSW 12:49:03 33° S 12:53:05 10° ESE
Cosmos 1455 3.2 12:47:21 10° SW 12:50:41 28° SSE 12:54:00 10° E
Cosmos 2228 Rocket 4.2 12:47:08 11° S 12:50:56 32° ESE 12:54:53 10° ENE
Cosmos 1340 4.2 12:48:30 10° NW 12:51:30 22° W 12:54:23 11° SW
Thor Agena Rocket 4.5 12:46:53 10° ENE 12:51:40 33° SE 12:56:18 11° SSW
Cosmos 2369 Rocket 4.1 12:52:54 10° S 12:54:21 11° SSE 12:55:50 10° SE
Meteor 2-10 Rocket 4.3 12:50:39 10° SW 12:55:10 32° SSE 12:59:36 10° E
Iridium 2 4.1 12:53:07 10° NW 12:56:46 43° WSW 13:00:25 10° SSE
Cosmos 1544 4.2 12:54:02 10° WNW 12:57:11 26° SW 13:00:17 10° S
Cosmos 1975 3.9 12:54:08 10° NW 12:57:43 30° WSW 13:01:10 11° S
Cosmos 1346 Rocket 4.3 12:58:32 10° NW 13:01:52 24° W 13:05:02 11° SW
Cosmos 2315 Rocket 4.4 12:57:05 10° NW 13:02:58 46° WSW 13:08:53 10° S
Cosmos 1953 3.2 12:59:28 10° W 13:03:02 29° SSW 13:06:36 10° SE
IDEFIX/ARIANE 42P 4.3 12:58:36 10° NNW 13:03:28 35° NE 13:08:19 10° ESE
Okean O Rocket 3.9 13:01:46 10° NNW 13:05:44 30° NNE 13:09:42 10° E
ALOS 2 3.9 13:04:12 10° SW 13:08:09 31° WNW 13:12:06 10° N
Cosmos 1758 4.2 13:04:58 10° W 13:08:24 29° SSW 13:11:52 10° SSE
Cosmos 1726 3.1 13:05:23 10° WSW 13:08:28 26° SSW 13:11:34 10° SE
Cosmos 1842 Rocket 4.4 13:04:29 10° SW 13:08:29 33° SSE 13:12:30 10° E
SL-08 R/B 4.1 13:05:28 10° S 13:09:36 31° WSW 13:13:45 10° NW
Cosmos 2151 Rocket 4.5 13:06:35 10° NW 13:10:35 33° WSW 13:14:37 10° S
CZ-2C R/B 4.3 13:06:35 10° NNW 13:11:16 35° NE 13:16:03 10° ESE
Cosmos 1812 4.3 13:08:35 10° SSE 13:11:54 28° ESE 13:15:14 10° NE
Cosmos 1726 Rocket 4.2 13:08:56 10° W 13:12:50 32° SSW 13:16:41 10° SE
Cosmos 1727 Rocket 4.3 13:08:09 10° WSW 13:13:59 46° S 13:19:51 10° ESE
Nadezhda 3 Rocket 4.3 13:08:31 10° W 13:14:33 46° SSW 13:20:36 10° SE
COSMO-SKYMED 1 3.3 13:13:38 10° SE 13:17:32 31° SSW 13:21:26 10° W
Cosmos 1300 3.7 13:15:44 10° WSW 13:19:01 27° S 13:22:19 10° ESE
Cosmos 1844 Rocket 4.4 13:17:37 10° SW 13:19:06 11° SW 13:19:57 11° SSW
Cosmos 1766 4.2 13:16:04 10° WNW 13:19:25 28° SW 13:22:47 10° SSE
CRYOSAT 2 4.4 13:15:43 10° S 13:20:38 71° W 13:25:35 10° N
Terra 3.2 13:17:03 10° WSW 13:21:23 33° NW 13:25:42 10° NNE
Cosmos 2058 Rocket 3.8 13:18:20 10° W 13:22:13 32° SSW 13:26:08 10° SE
Cosmos 1689 Rocket 3.5 13:20:06 11° S 13:22:16 21° SW 13:24:38 10° WNW
SPOT 5 4.4 13:17:24 10° WSW 13:22:21 36° NW 13:27:11 10° NNE
Cosmos 1633 4.3 13:21:03 10° N 13:24:03 25° NW 13:27:04 10° WSW
Cosmos 1455 Rocket 3.8 13:21:03 10° WNW 13:25:01 32° SW 13:28:56 10° SSE
Nadezhda 1 Rocket 4.4 13:20:28 10° NW 13:26:27 46° SW 13:32:30 10° SSE
Helios 1A 4.4 13:22:57 10° SW 13:26:39 28° WNW 13:30:21 10° N
Cosmos 2228 3.7 13:22:54 10° W 13:26:46 31° SSW 13:30:36 10° SE
H-2A R/B 3.2 13:22:59 10° SSW 13:26:50 30° WSW 13:30:50 10° NW
Cosmos 1544 Rocket 4.3 13:24:18 10° WNW 13:28:11 32° SW 13:32:03 10° SSE
SL-24 DEB 4.3 13:23:35 10° S 13:28:23 70° WSW 13:33:10 10° NNW
Cosmos 1782 4.2 13:25:01 10° S 13:28:32 29° ESE 13:32:05 10° ENE
Cosmos 1553 Rocket 4.5 13:23:01 10° NNW 13:28:51 45° W 13:34:38 10° SSW
USA 116 4.5 13:27:02 10° SSE 13:29:42 22° SSW 13:32:15 10° WSW
Cosmos 1805 4.2 13:28:36 10° WNW 13:31:59 28° SW 13:35:22 10° SSE
Cosmos 1151 Rocket 4.1 13:28:25 11° SSW 13:32:00 31° SE 13:35:51 10° ENE
Resurs 1-4 Rocket 3.5 13:27:12 10° NNE 13:32:05 35° E 13:36:58 10° SSE
Cosmos 1606 4.0 13:29:55 11° S 13:33:09 28° SE 13:36:27 10° ENE
Cosmos 1666 3.9 13:30:14 10° NW 13:33:30 27° W 13:36:30 12° SSW
COBE Rocket 4.5 13:28:55 10° SE 13:33:48 40° SSW 13:38:43 10° W
USA 186 4.1 13:32:33 10° NW 13:34:24 18° N 13:36:11 10° NE
SJ 16-02 4.0 13:32:48 10° NNW 13:34:31 12° NW 13:36:14 10° WNW
Cosmos 2123 Rocket 4.4 13:29:22 10° WSW 13:35:19 46° S 13:41:13 10° ESE
Cosmos 2278 Rocket 3.9 13:34:31 10° SW 13:35:49 11° SSW 13:37:28 10° S
Resurs 01 Rocket 3.4 13:33:11 10° W 13:37:12 31° NNW 13:41:11 10° NE
H-2A R/B 3.7 13:33:13 10° W 13:38:15 37° NNW 13:43:19 10° NE
MOS 1 Rocket 4.1 13:34:10 10° E 13:38:32 35° SSE 13:42:36 10° SW
CZ-2C R/B 3.4 13:35:39 10° E 13:40:54 38° SSE 13:46:08 10° SW
Cosmos 1943 Rocket 4.0 13:39:26 10° S 13:40:58 11° S 13:42:31 10° SSE
Cosmos 1340 Rocket 4.1 13:38:27 11° SW 13:41:27 24° SSE 13:44:41 10° ESE
Cosmos 1400 Rocket 4.4 13:38:16 10° S 13:41:32 24° SE 13:44:50 10° ENE
Aureole 3 4.1 13:38:38 10° WNW 13:41:35 24° SW 13:44:13 10° S
Cosmos 2181 Rocket 4.3 13:35:42 10° WNW 13:41:49 47° SW 13:47:55 10° SSE
Iridium 96 4.3 13:39:21 10° WNW 13:41:51 36° SW 13:44:12 10° SSE
Meteor 1-28 Rocket 4.2 13:38:45 10° S 13:42:08 29° WSW 13:45:31 10° WNW
Sich 1 4.5 13:38:50 10° NNE 13:42:41 31° NW 13:46:30 10° WSW
EO 1 Del DPAF 4.5 13:39:50 10° E 13:43:05 26° SSE 13:46:00 12° SSW
ALOS 4.3 13:39:36 10° NNW 13:43:52 33° NE 13:48:09 10° ESE
Helios 1B rocket 3.8 13:40:33 10° ENE 13:44:09 28° SE 13:47:44 10° S
Cosmos 2221 3.4 13:40:28 10° SW 13:44:13 31° SSE 13:48:00 10° ESE
Cosmos 1908 4.1 13:42:51 10° WSW 13:46:13 28° SSW 13:49:34 10° SE
CZ-4 R/B 3.7 13:42:32 10° NW 13:46:20 30° NNE 13:50:07 10° ENE
Cosmos 1470 3.6 13:44:43 10° W 13:48:11 29° SW 13:51:37 10° SSE
CZ-2C R/B 4.5 13:47:34 10° SE 13:51:30 29° S 13:55:26 10° WSW
Okean 2 Rocket 4.0 13:47:33 10° NW 13:51:35 33° W 13:55:34 10° SSW
Cosmos 1733 Rocket 4.1 13:48:48 10° NNW 13:52:47 32° WNW 13:56:34 11° SW
CZ-4B R/B 2.6 13:50:36 11° SSW 13:52:56 22° WSW 13:55:28 10° WNW
Cosmos 405 Rocket 4.0 13:49:54 10° WNW 13:53:12 25° WSW 13:56:32 10° S
ADEOS Rocket 3.9 13:46:34 10° ESE 13:53:54 47° S 14:01:24 10° WSW
Cosmos 1733 4.1 13:51:07 10° WNW 13:54:28 28° SW 13:57:49 10° SSE
Cosmos-2242 3.8 13:53:30 10° WSW 13:57:21 32° S 14:01:12 10° ESE
Iridium 4 Rocket 3.8 13:52:44 10° S 13:57:29 62° E 14:02:41 10° NNE
CZ-2D R/B 3.5 13:54:01 10° NNE 13:58:47 34° E 14:03:32 10° SSE
Cosmos 2263 Rocket 4.0 14:00:11 10° W 14:01:40 11° WSW 14:03:07 10° SW
Okean 1-7 4.5 13:59:39 10° SSE 14:03:27 31° ESE 14:07:14 10° NE
SL-16 R/B 3.2 13:59:03 10° SSW 14:04:52 37° W 14:10:41 10° NNW
SKYMED 2 4.3 14:02:11 10° SSE 14:06:06 31° SW 14:10:00 10° W
ADEOS II 3.6 14:01:54 10° NNE 14:06:44 35° E 14:11:34 10° SSE
Cosmos 1606 Rocket 4.2 14:03:54 10° W 14:07:46 32° SW 14:11:37 10° SSE
Cosmos 1184 Rocket 4.3 14:06:28 10° W 14:08:53 19° SW 14:11:19 10° S
ERS-1 Rocket 4.4 14:04:46 10° W 14:09:22 33° NNW 14:13:58 10° NE
GP-B 3.2 14:06:10 10° SE 14:10:40 88° NE 14:15:08 10° NW
CZ-4C R/B 4.2 14:08:34 11° SSW 14:11:16 25° WSW 14:14:19 10° NW
Cosmos 1869 4.4 14:09:41 11° SW 14:12:56 29° SSE 14:16:25 10° ESE
ERS-2 3.7 14:10:19 11° SW 14:13:09 23° WNW 14:16:11 10° NNW
Okean 1 Rocket 3.9 14:09:15 10° NW 14:13:16 33° WSW 14:17:18 10° S
Cosmos 1300 Rocket 4.4 14:09:27 10° NW 14:13:23 32° W 14:17:21 10° SSW
Cosmos 1633 Rocket 4.4 14:11:07 10° NNE 14:15:00 32° NW 14:18:53 10° WSW
Cosmos 1500 4.5 14:13:40 10° NNW 14:16:56 27° WNW 14:19:58 11° SW
Mayak -0.1 14:14:48 10° E 14:18:32 31° SSE 14:22:04 11° SSW
Cosmos 2227 Rocket 4.2 14:19:48 10° WNW 14:21:28 11° W 14:23:08 10° W
ASTEX 1 3.4 14:17:02 10° SE 14:21:56 65° SSW 14:26:53 10° WNW
Cosmos 1743 3.9 14:18:35 10° NNW 14:21:58 28° W 14:25:03 12° SSW
Cosmos 1536 4.0 14:18:37 10° NNW 14:22:06 29° WNW 14:25:20 11° SW
Cosmos 1825 4.1 14:19:13 10° NE 14:22:28 27° NNW 14:25:42 10° WNW
Cosmos 1455 3.2 14:22:16 10° WSW 14:25:36 28° S 14:28:55 10° SE
S3M 4.5 14:20:17 10° NNW 14:26:12 46° W 14:32:11 10° SSW
Cosmos 1812 Rocket 4.3 14:22:12 10° W 14:26:12 33° SSW 14:30:13 10° SE
Cosmos 1340 4.2 14:23:16 10° NNW 14:26:16 22° WNW 14:29:08 11° WSW
Cosmos 2297 Rocket 4.2 14:25:38 10° WNW 14:27:12 11° WNW 14:28:44 10° W
Cosmos 2228 Rocket 4.2 14:24:37 11° SSW 14:28:25 32° SE 14:32:22 10° E
ARIANE 5 R/B 4.1 14:24:31 10° NNE 14:29:06 33° E 14:33:39 10° SSE
Cosmos 1544 4.2 14:28:22 10° NW 14:31:30 26° W 14:34:36 10° SSW
Iridium 2 4.1 14:28:01 10° NNW 14:31:41 43° W 14:35:19 10° S
Thor Agena Rocket 4.5 14:27:28 10° ESE 14:32:15 33° SSE 14:36:53 11° SW
Cosmos 1975 3.9 14:29:53 10° NNW 14:33:29 30° W 14:36:55 11° SSW
Cosmos 2369 Rocket 4.1 14:34:40 10° SSW 14:36:07 11° S 14:37:35 10° SSE
Meteor 2-10 Rocket 4.3 14:31:46 10° WSW 14:36:18 32° S 14:40:44 10° ESE
Cosmos 1346 Rocket 4.3 14:34:02 10° NNW 14:37:22 24° WNW 14:40:32 11° WSW
Cosmos 1953 3.2 14:35:10 10° WNW 14:38:44 29° SW 14:42:18 10° SSE
Cosmos 1726 3.1 14:39:53 10° W 14:42:59 26° SW 14:46:05 10° SSE
Okean O Rocket 3.9 14:39:13 10° N 14:43:12 30° NE 14:47:09 10° ESE
Cosmos 1758 4.2 14:40:42 10° WNW 14:44:10 29° SW 14:47:37 10° S
IDEFIX/ARIANE 42P 4.3 14:39:24 10° NNE 14:44:16 35° E 14:49:08 10° SE
Intercosmos 25 4.0 14:41:59 10° WNW 14:44:44 26° WSW 14:47:53 10° S
ALOS 2 3.9 14:41:36 10° WSW 14:45:32 31° NW 14:49:29 10° NNE
Cosmos 1842 Rocket 4.4 14:41:39 10° WSW 14:45:39 33° S 14:49:40 10° ESE
Cosmos 1812 4.3 14:43:40 10° S 14:46:59 28° SE 14:50:19 10° ENE
Cosmos 2315 Rocket 4.4 14:41:55 10° NNW 14:47:48 46° W 14:53:44 10° SSW
Cosmos 2151 Rocket 4.5 14:43:57 10° NNW 14:47:57 33° W 14:51:59 10° SSW
SL-08 R/B 4.1 14:44:26 10° SSW 14:48:34 31° W 14:52:44 10° NNW
Cosmos 1726 Rocket 4.2 14:46:02 10° WNW 14:49:55 32° SW 14:53:47 10° SSE
CZ-2C R/B 4.3 14:45:58 10° N 14:50:39 35° ENE 14:55:26 10° SE
Cosmos 1300 3.7 14:50:41 10° W 14:53:59 27° SSW 14:57:16 10° SSE
Cosmos 1689 Rocket 3.5 14:52:24 11° SSW 14:54:33 21° WSW 14:56:55 10° NW
COSMO-SKYMED 1 3.3 14:50:51 10° SSE 14:54:45 31° SW 14:58:39 10° WNW
Cosmos 1766 4.2 14:51:26 10° NW 14:54:47 28° WSW 14:58:09 10° S
Cosmos 1633 4.3 14:55:11 10° NNE 14:58:12 25° NNW 15:01:12 10° W
Cosmos 1727 Rocket 4.3 14:52:53 10° W 14:58:43 46° SSW 15:04:34 10° SE
Nadezhda 3 Rocket 4.3 14:53:14 10° WNW 14:59:16 46° SW 15:05:19 10° SSE
Cosmos 2058 Rocket 3.8 14:55:36 10° WNW 14:59:30 32° SW 15:03:23 10° SSE
CRYOSAT 2 4.4 14:54:57 10° SSW 14:59:52 71° WNW 15:04:48 10° NNE
Terra 3.2 14:55:56 10° W 15:00:15 33° NNW 15:04:35 10° NE
Cosmos 1844 Rocket 4.4 14:59:15 10° WSW 15:00:44 11° WSW 15:01:33 11° SW
SPOT 5 4.4 14:56:39 10° W 15:01:35 36° NNW 15:06:24 10° NE
Cosmos 1455 Rocket 3.8 14:58:09 10° NW 15:02:07 32° WSW 15:06:03 10° S
Helios 1A 4.4 14:59:34 10° W 15:03:17 28° NW 15:06:58 10° NNE
Cosmos 2228 3.7 14:59:44 10° WNW 15:03:36 31° SW 15:07:26 10° SSE
H-2A R/B 3.2 15:00:05 11° SW 15:03:56 30° W 15:07:56 10° NNW
Cosmos 1782 4.2 15:00:37 10° SSW 15:04:09 29° SE 15:07:41 10° E
Cosmos 1544 Rocket 4.3 15:01:25 10° NW 15:05:18 32° WSW 15:09:10 10° S
USA 186 4.1 15:04:15 10° NNW 15:06:06 18° NNE 15:07:53 10° ENE
USA 116 4.5 15:03:54 10° S 15:06:33 22° SW 15:09:06 10° W
SL-24 DEB 4.3 15:02:04 10° SSW 15:06:53 70° W 15:11:39 10° N
Cosmos 1805 4.2 15:03:53 10° NW 15:07:15 28° WSW 15:10:38 10° S
Cosmos 1606 4.0 15:04:57 11° SSW 15:08:10 28° SSE 15:11:28 10° E
Cosmos 1666 3.9 15:05:07 10° NNW 15:08:24 27° WNW 15:11:23 12° SW
Cosmos 1151 Rocket 4.1 15:05:15 11° SW 15:08:50 31° SSE 15:12:41 10° ESE
Nadezhda 1 Rocket 4.4 15:05:05 10° NNW 15:11:04 46° W 15:17:06 10° S
SJ 16-02 4.0 15:09:46 10° NNE 15:11:30 12° N 15:13:13 10° NNW
Resurs 1-4 Rocket 3.5 15:08:17 10° NE 15:13:09 35° ESE 15:18:03 10° S
COBE Rocket 4.5 15:08:24 10° SSE 15:13:17 40° SW 15:18:13 10° WNW
Cosmos 1553 Rocket 4.5 15:07:39 10° N 15:13:30 45° WNW 15:19:16 10° SW
Iridium 96 4.3 15:11:44 10° NW 15:14:14 36° WSW 15:16:35 10° S
Resurs 01 Rocket 3.4 15:10:45 10° WNW 15:14:46 31° N 15:18:46 10° ENE
Cosmos 1340 Rocket 4.1 15:14:03 11° WSW 15:17:02 24° SSW 15:20:16 10° SE
Meteor 1-28 Rocket 4.2 15:13:43 10° SSW 15:17:06 29° W 15:20:28 10° NW
Cosmos 1400 Rocket 4.4 15:13:53 10° SSW 15:17:09 24° SSE 15:20:27 10° E
Cosmos 2278 Rocket 3.9 15:16:23 11° WSW 15:17:38 11° SW 15:19:17 10° SSW
MOS 1 Rocket 4.1 15:13:28 10° ESE 15:17:50 35° S 15:21:54 10° WSW
EO 1 Del DPAF 4.5 15:14:54 10° ESE 15:18:08 26° S 15:21:03 12° WSW
H-2A R/B 3.7 15:13:51 10° NW 15:18:52 37° NNE 15:23:57 10° E
Sich 1 4.5 15:15:48 10° NE 15:19:39 31° NNW 15:23:28 10° W
Cosmos 2123 Rocket 4.4 15:14:04 10° W 15:20:01 46° SSW 15:25:54 10° SE
Helios 1B rocket 3.8 15:16:53 10° E 15:20:28 28° SSE 15:24:04 10° SSW
Cosmos 2221 3.4 15:17:19 10° WSW 15:21:03 31° S 15:24:51 10° SE
Cosmos 1908 4.1 15:17:59 10° WNW 15:21:21 28° SW 15:24:41 10° SSE
CZ-4 R/B 3.7 15:18:34 10° NNW 15:22:21 30° NE 15:26:09 10° E
ALOS 4.3 15:18:06 10° N 15:22:23 33° ENE 15:26:39 10° SE
CZ-2C R/B 3.4 15:17:10 10° SE 15:22:25 38° SSW 15:27:40 10° W
Cosmos 1943 Rocket 4.0 15:20:56 10° SSW 15:22:29 11° SSW 15:24:01 10° S
Aureole 3 4.1 15:19:47 10° NW 15:22:43 24° W 15:25:21 10° SSW
Cosmos 1470 3.6 15:20:04 10° WNW 15:23:31 29° WSW 15:26:59 10° S
CZ-4B R/B 2.6 15:23:54 11° SW 15:26:14 22° W 15:28:45 10° NW
Cosmos 2181 Rocket 4.3 15:20:31 10° NW 15:26:39 47° WSW 15:32:44 10° S
Cosmos 405 Rocket 4.0 15:25:03 10° NW 15:28:21 25° W 15:31:41 10° SSW
Okean 2 Rocket 4.0 15:24:54 10° NNW 15:28:56 33° WNW 15:32:54 10° SW
Cosmos 1733 4.1 15:26:05 10° NW 15:29:26 28° WSW 15:32:47 10° S
CZ-2C R/B 4.5 15:25:49 10° SSE 15:29:45 29° SW 15:33:42 10° W
Cosmos 1733 Rocket 4.1 15:25:53 10° N 15:29:52 32° NW 15:33:39 11° WSW
Cosmos-2242 3.8 15:30:20 10° W 15:34:12 32° SSW 15:38:02 10° SE
Iridium 4 Rocket 3.8 15:32:31 10° SSW 15:37:15 63° SE 15:42:27 10° NE
CZ-2D R/B 3.5 15:35:20 10° ENE 15:40:06 34° SE 15:44:52 10° S
Okean 1-7 4.5 15:36:31 10° SSW 15:40:19 31° SE 15:44:05 10° ENE
ADEOS Rocket 3.9 15:33:31 10° SE 15:40:52 47° SSW 15:48:22 10° WNW
Cosmos 1184 Rocket 4.3 15:39:28 10° NW 15:41:54 19° WSW 15:44:20 10° SSW
SKYMED 2 4.3 15:39:24 10° S 15:43:19 31° WSW 15:47:13 10° WNW
Cosmos 2263 Rocket 4.0 15:41:52 10° WNW 15:43:20 11° W 15:44:48 10° WSW
Cosmos 1606 Rocket 4.2 15:41:01 10° WNW 15:44:53 32° WSW 15:48:44 10° S
CZ-4C R/B 4.2 15:42:17 11° SW 15:44:58 25° W 15:48:01 10° NNW
ADEOS II 3.6 15:42:50 10° NE 15:47:40 35° ESE 15:52:31 10° S
ERS-2 3.7 15:44:57 11° WSW 15:47:47 23° NW 15:50:48 10° N
GP-B 3.2 15:43:37 10° SSE 15:48:06 88° ENE 15:52:35 10° NNW
Cosmos 1869 4.4 15:45:14 12° WSW 15:48:28 29° S 15:51:58 10° SE
ERS-1 Rocket 4.4 15:44:45 10° WNW 15:49:21 33° N 15:53:57 10° ENE
SL-16 R/B 3.2 15:44:08 10° SW 15:49:58 37° WNW 15:55:46 10° N
Cosmos 1300 Rocket 4.4 15:46:30 10° NNW 15:50:25 32° WNW 15:54:23 10° SW
Okean 1 Rocket 3.9 15:46:25 10° NNW 15:50:26 33° W 15:54:29 10° SSW
Cosmos 1500 4.5 15:48:34 10° N 15:51:49 27° NW 15:54:51 11° WSW
Cosmos 1633 Rocket 4.4 15:48:11 10° NE 15:52:04 32° NNW 15:55:57 10° WNW
Mayak -0.1 15:51:23 10° ESE 15:55:07 31° S 15:58:38 11° WSW
Cosmos 1743 3.9 15:53:40 10° N 15:57:02 28° WNW 16:00:07 12° WSW
Cosmos 1825 4.1 15:54:01 10° ENE 15:57:16 27° N 16:00:30 10° NW
Cosmos 1536 4.0 15:54:19 10° N 15:57:49 29° NW 16:01:03 11° WSW
Cosmos 1455 3.2 15:57:11 10° W 16:00:32 28° SSW 16:03:50 10° SSE
Cosmos 1340 4.2 15:58:01 10° N 16:01:02 22° NW 16:03:54 11° W
ASTEX 1 3.4 15:56:32 10° SSE 16:01:27 65° SW 16:06:23 10° NW
Cosmos 2227 Rocket 4.2 16:01:36 10° NW 16:03:16 11° NW 16:04:55 10° WNW
Cosmos 1812 Rocket 4.3 15:59:20 10° WNW 16:03:21 33° SW 16:07:22 10° SSE
Cosmos 1544 4.2 16:02:41 10° NNW 16:05:50 26° WNW 16:08:54 11° SW
Cosmos 2228 Rocket 4.2 16:02:07 11° SW 16:05:54 32° S 16:09:51 10° ESE
Iridium 2 4.1 16:02:56 10° N 16:06:36 43° WNW 16:10:14 10° SW
Cosmos 2297 Rocket 4.2 16:07:26 10° NW 16:08:58 11° NW 16:10:31 10° WNW
Cosmos 1975 3.9 16:05:38 10° N 16:09:14 30° WNW 16:12:39 11° SW
ARIANE 5 R/B 4.1 16:04:51 10° NE 16:09:26 33° ESE 16:13:59 10° S
S3M 4.5 16:04:57 10° NNE 16:10:53 46° WNW 16:16:53 10° SW
Thor Agena Rocket 4.5 16:08:04 10° SE 16:12:51 33° SSW 16:17:27 11° WSW
Cosmos 1346 Rocket 4.3 16:09:31 10° N 16:12:52 24° NW 16:16:02 11° W
Cosmos 1953 3.2 16:10:51 10° NW 16:14:26 29° WSW 16:17:59 10° S
Meteor 2-10 Rocket 4.3 16:12:54 10° W 16:17:25 32° SSW 16:21:51 10° SSE
Cosmos 1726 3.1 16:14:24 10° WNW 16:17:30 26° WSW 16:20:36 10° S
Cosmos 2369 Rocket 4.1 16:16:25 10° SW 16:17:53 11° SSW 16:19:21 10° SSW
Cosmos 1758 4.2 16:16:27 10° NW 16:19:54 29° WSW 16:23:22 10° SSW
Okean O Rocket 3.9 16:16:40 10° NNE 16:20:38 30° ENE 16:24:37 10° SE
Cosmos 1812 4.3 16:18:45 10° SSW 16:22:05 28° SSE 16:25:24 10° E
Cosmos 1842 Rocket 4.4 16:18:49 10° W 16:22:48 33° SSW 16:26:49 10° SE
ALOS 2 3.9 16:18:59 10° W 16:22:56 31° NNW 16:26:53 10° NE
IDEFIX/ARIANE 42P 4.3 16:20:13 10° NE 16:25:05 35° ESE 16:29:56 10° S
Cosmos 2151 Rocket 4.5 16:21:19 10° N 16:25:19 33° WNW 16:29:22 10° SW
Cosmos 1689 Rocket 3.5 16:24:42 11° SW 16:26:51 21° W 16:29:12 10° NNW
Cosmos 1726 Rocket 4.2 16:23:06 10° NW 16:27:00 32° WSW 16:30:52 10° S
SL-08 R/B 4.1 16:23:25 10° SW 16:27:32 31° WNW 16:31:42 10° N
Cosmos 1300 3.7 16:25:38 10° WNW 16:28:56 27° SW 16:32:13 10° S
CZ-2C R/B 4.3 16:25:21 10° NNE 16:30:02 35° E 16:34:49 10° SSE
Cosmos 1766 4.2 16:26:47 10° NNW 16:30:10 28° W 16:33:32 10° SSW
COSMO-SKYMED 1 3.3 16:28:03 10° S 16:31:58 31° WSW 16:35:53 10° NW
Cosmos 1633 4.3 16:29:20 10° NE 16:32:20 25° N 16:35:21 10° WNW
Cosmos 2315 Rocket 4.4 16:26:46 10° N 16:32:39 46° WNW 16:38:35 10° SW
Cosmos 2058 Rocket 3.8 16:32:52 10° NW 16:36:45 32° WSW 16:40:40 10° S
USA 186 4.1 16:35:57 10° N 16:37:48 18° NE 16:39:35 10° E
CRYOSAT 2 4.4 16:34:10 10° SW 16:39:05 71° NW 16:44:01 10° NE
Terra 3.2 16:34:49 10° WNW 16:39:08 33° N 16:43:28 10° ENE
Cosmos 1455 Rocket 3.8 16:35:16 10° NNW 16:39:14 32° W 16:43:09 10° SSW
Cosmos 1782 4.2 16:36:14 10° SW 16:39:45 29° S 16:43:17 10° ESE
Helios 1A 4.4 16:36:12 10° WNW 16:39:54 28° NNW 16:43:36 10° NE
Cosmos 2228 3.7 16:36:34 10° NW 16:40:25 31° WSW 16:44:15 10° S
SPOT 5 4.4 16:35:53 10° WNW 16:40:49 36° N 16:45:38 10° ENE
H-2A R/B 3.2 16:37:11 11° WSW 16:41:02 30° WNW 16:45:02 10° N
Cosmos 1844 Rocket 4.4 16:40:53 10° WNW 16:42:22 11° W 16:43:09 11° WSW
Cosmos 1544 Rocket 4.3 16:38:32 10° NNW 16:42:25 32° W 16:46:18 10° SSW
Cosmos 1805 4.2 16:39:09 10° NNW 16:42:32 28° W 16:45:54 10° SW
Cosmos 1606 4.0 16:39:58 11° WSW 16:43:11 28° S 16:46:29 10° ESE
Cosmos 1666 3.9 16:40:00 10° NNE 16:43:17 27° NW 16:46:15 12° WSW
USA 116 4.5 16:40:45 10° SSW 16:43:23 22° WSW 16:45:56 10° WNW
Cosmos 1727 Rocket 4.3 16:37:35 10° NW 16:43:26 46° SW 16:49:18 10° SSE
Nadezhda 3 Rocket 4.3 16:37:58 10° NW 16:43:59 46° WSW 16:50:02 10° S
Intercosmos 25 4.0 16:41:31 10° NNW 16:44:16 26° W 16:47:25 10° SSW
SL-24 DEB 4.3 16:40:33 10° SW 16:45:22 70° NW 16:50:09 10° NNE
Cosmos 1151 Rocket 4.1 16:42:06 11° WSW 16:45:40 31° S 16:49:31 10° SE
Iridium 96 4.3 16:44:08 10° NNW 16:46:37 36° W 16:48:58 10° SSW
SJ 16-02 4.0 16:46:45 10° NE 16:48:28 12° NNE 16:50:11 10° N
Meteor 1-28 Rocket 4.2 16:48:41 10° SW 16:52:04 29° WNW 16:55:26 10° NNW
Resurs 01 Rocket 3.4 16:48:19 10° NW 16:52:20 31° NNE 16:56:19 10° E
Cosmos 1340 Rocket 4.1 16:49:39 11° W 16:52:37 24° SW 16:55:52 10° SSE
Cosmos 1400 Rocket 4.4 16:49:29 10° SW 16:52:45 24° S 16:56:03 10° ESE
COBE Rocket 4.5 16:47:53 10° S 16:52:46 40° WSW 16:57:41 10° NNW
EO 1 Del DPAF 4.5 16:49:57 10° SSE 16:53:12 26° SSW 16:56:07 12° W
Resurs 1-4 Rocket 3.5 16:49:22 10° ENE 16:54:14 35° SE 16:59:07 10° SSW
Nadezhda 1 Rocket 4.4 16:49:42 10° N 16:55:40 46° WNW 17:01:43 10° SW
Cosmos 1908 4.1 16:53:07 10° NW 16:56:28 28° WSW 16:59:49 10° S
Sich 1 4.5 16:52:45 10° ENE 16:56:36 31° N 17:00:26 10° NW
Helios 1B rocket 3.8 16:53:12 10° ESE 16:56:48 28° S 17:00:24 10° WSW
MOS 1 Rocket 4.1 16:52:46 10° SE 16:57:08 34° SSW 17:01:11 11° W
Cosmos 2221 3.4 16:54:09 10° W 16:57:54 31° SSW 17:01:41 10° SSE
Cosmos 1553 Rocket 4.5 16:52:18 10° NNE 16:58:08 45° NW 17:03:54 10° WSW
CZ-4 R/B 3.7 16:54:35 10° N 16:58:23 30° ENE 17:02:10 10° SE
Cosmos 1470 3.6 16:55:25 10° NW 16:58:52 29° W 17:02:19 10° SSW
Cosmos 2278 Rocket 3.9 16:58:16 11° W 16:59:27 11° WSW 17:01:06 10° SW
H-2A R/B 3.7 16:54:28 10° NNW 16:59:30 37° NE 17:04:34 10° ESE
CZ-4B R/B 2.6 16:57:12 11° WSW 16:59:30 22° WNW 17:02:02 10° NNW
ALOS 4.3 16:56:38 10° NNE 17:00:54 33° E 17:05:10 10° SSE
Cosmos 405 Rocket 4.0 17:00:11 10° NNW 17:03:29 25° WNW 17:06:49 10° WSW
Aureole 3 4.1 17:00:56 10° NNW 17:03:52 24° WNW 17:06:29 10° SW
CZ-2C R/B 3.4 16:58:41 10° SSE 17:03:56 38° SW 17:09:10 10° WNW
Cosmos 1943 Rocket 4.0 17:02:25 10° WSW 17:03:58 11° SW 17:05:31 10° SSW
Cosmos 1733 4.1 17:01:03 10° NNW 17:04:24 28° W 17:07:45 10° SW
Cosmos 2123 Rocket 4.4 16:58:44 10° WNW 17:04:41 46° SW 17:10:35 10° SSE
Okean 2 Rocket 4.0 17:02:15 10° NNE 17:06:18 33° NW 17:10:15 10° WSW
Cosmos 1733 Rocket 4.2 17:02:57 10° NE 17:06:56 32° NNW 17:10:43 11° W
CZ-2C R/B 4.5 17:04:05 10° S 17:08:01 29° WSW 17:11:57 10° WNW
Cosmos-2242 3.8 17:07:11 10° WNW 17:11:02 32° SW 17:14:53 10° S
Cosmos 2181 Rocket 4.3 17:05:21 10° NNW 17:11:28 47° W 17:17:33 10° SSW
Cosmos 1184 Rocket 4.3 17:12:28 10° NNW 17:14:54 19° W 17:17:20 10° SW
Iridium 4 Rocket 3.8 17:12:17 10° SW 17:17:02 63° SSE 17:22:15 10° ENE
Okean 1-7 4.5 17:13:22 10° SW 17:17:09 31° SSE 17:20:57 10° E
CZ-4C R/B 4.2 17:15:59 11° WSW 17:18:41 25° NW 17:21:43 10° N
SKYMED 2 4.3 17:16:38 10° SSW 17:20:31 31° W 17:24:26 10° NNW
CZ-2D R/B 3.5 17:16:39 10° E 17:21:25 34° SSE 17:26:11 10° SW
Cosmos 1606 Rocket 4.2 17:18:07 10° NNW 17:22:00 32° W 17:25:52 10° SSW
ERS-2 3.7 17:19:35 11° W 17:22:23 23° NNW 17:25:26 10° NNE
Cosmos 1869 4.4 17:20:47 12° W 17:24:01 29° SSW 17:27:31 10° SSE
Cosmos 2263 Rocket 4.0 17:23:32 10° NW 17:25:00 11° WNW 17:26:27 10° WNW
GP-B 3.2 17:21:04 10° S 17:25:33 88° E 17:30:02 10° N
Cosmos 1500 4.5 17:23:27 10° NNE 17:26:43 27° NNW 17:29:44 11° W
Cosmos 1300 Rocket 4.4 17:23:32 10° NNE 17:27:28 32° NW 17:31:25 10° WSW
Okean 1 Rocket 3.9 17:23:36 10° N 17:27:37 33° WNW 17:31:39 10° WSW
ADEOS Rocket 3.9 17:20:28 10° SSE 17:27:49 47° WSW 17:35:19 10° NW
ADEOS II 3.6 17:23:46 10° ENE 17:28:36 35° SE 17:33:26 10° SSW
Cosmos 1633 Rocket 4.4 17:25:16 10° ENE 17:29:08 32° N 17:33:01 10° NW
ERS-1 Rocket 4.4 17:24:45 10° NW 17:29:21 33° NNE 17:33:57 10° E
Mayak -0.1 17:27:57 10° SE 17:31:42 31° SSW 17:35:12 11° W
Cosmos 1825 4.1 17:28:50 10° E 17:32:04 27° NNE 17:35:19 10° NNW
Cosmos 1743 3.9 17:28:44 10° NNE 17:32:07 28° NW 17:35:11 12° W
Cosmos 1536 4.0 17:30:02 10° NNE 17:33:31 29° NNW 17:36:45 12° W
SL-16 R/B 3.2 17:29:14 10° WSW 17:35:03 37° NW 17:40:52 10° NNE
Cosmos 1455 3.2 17:32:07 10° WNW 17:35:26 28° SW 17:38:45 10° S
Cosmos 1340 4.2 17:32:47 10° NNE 17:35:48 22° NNW 17:38:39 11° WNW
Cosmos 1544 4.2 17:37:01 10° N 17:40:10 26° NW 17:43:13 11° WSW
Cosmos 1812 Rocket 4.3 17:36:29 10° NW 17:40:29 33° WSW 17:44:30 10° S
ASTEX 1 3.4 17:36:03 10° S 17:40:58 65° W 17:45:54 10° NNW
Iridium 2 4.1 17:37:51 10° NNE 17:41:30 43° NW 17:45:09 10° WSW
Cosmos 2228 Rocket 4.2 17:39:36 11° WSW 17:43:23 32° SSW 17:47:19 10° SE
Cosmos 1975 3.9 17:41:24 10° NNE 17:45:00 30° NW 17:48:24 11° W
Cosmos 2227 Rocket 4.2 17:43:24 10° N 17:45:03 11° NNW 17:46:43 10° NW
Cosmos 1346 Rocket 4.3 17:45:01 10° NE 17:48:21 24° NNW 17:51:31 11° WNW
ARIANE 5 R/B 4.1 17:45:12 10° ENE 17:49:46 33° SE 17:54:19 10° SSW
Cosmos 1953 3.2 17:46:33 10° NNW 17:50:07 29° W 17:53:40 10° SSW
Cosmos 2297 Rocket 4.2 17:49:13 10° N 17:50:45 11° NNW 17:52:18 10° NW
Cosmos 1726 3.1 17:48:55 10° NW 17:52:00 26° W 17:55:06 10° SSW
Thor Agena Rocket 4.5 17:48:39 10° SSE 17:53:26 33° SW 17:58:02 11° W
S3M 4.5 17:49:38 10° NE 17:55:34 46° NNW 18:01:34 10° W
Cosmos 1758 4.2 17:52:12 10° NNW 17:55:39 29° W 17:59:06 10° SW
Cosmos 1812 4.3 17:53:50 10° SW 17:57:10 28° S 18:00:30 10° ESE
Okean O Rocket 3.9 17:54:07 10° NE 17:58:06 30° ESE 18:02:04 10° SSE
Meteor 2-10 Rocket 4.3 17:54:03 10° WNW 17:58:33 32° SW 18:03:00 10° S
Cosmos 1689 Rocket 3.5 17:57:00 11° WSW 17:59:08 21° WNW 18:01:29 10° N
Cosmos 2369 Rocket 4.1 17:58:12 10° WSW 17:59:40 11° SW 18:01:06 10° SW
Cosmos 1842 Rocket 4.4 17:55:58 10° WNW 17:59:58 33° SW 18:03:59 10° S
ALOS 2 3.9 17:56:23 10° WNW 18:00:19 31° N 18:04:16 10° ENE
Cosmos 2151 Rocket 4.5 17:58:41 10° NNE 18:02:41 33° NW 18:06:43 10° WSW
Cosmos 1300 3.7 18:00:35 10° NW 18:03:52 27° WSW 18:07:10 10° SSW
Cosmos 1726 Rocket 4.2 18:00:12 10° NNW 18:04:05 32° W 18:07:57 10° SSW
Cosmos 1766 4.2 18:02:10 10° N 18:05:31 28° WNW 18:08:54 10° SW
IDEFIX/ARIANE 42P 4.3 18:01:01 10° ENE 18:05:54 35° SE 18:10:45 10° SSW
Cosmos 1633 4.3 18:03:29 10° ENE 18:06:29 25° NNE 18:09:30 10° NW
SL-08 R/B 4.1 18:02:23 10° WSW 18:06:32 31° NW 18:10:40 10° NNE
COSMO-SKYMED 1 3.3 18:05:17 10° SSW 18:09:11 31° W 18:13:05 10° NNW
CZ-2C R/B 4.3 18:04:44 10° NE 18:09:26 35° ESE 18:14:12 10° S
USA 186 4.1 18:07:39 10° NNE 18:09:30 18° ENE 18:11:16 10° ESE
Cosmos 2058 Rocket 3.8 18:10:08 10° NNW 18:14:02 32° W 18:17:55 10° SSW
Cosmos 1782 4.2 18:11:50 10° WSW 18:15:22 29° SSW 18:18:53 10° SE
Cosmos 1455 Rocket 3.8 18:12:23 10° N 18:16:20 32° WNW 18:20:16 10° WSW
Helios 1A 4.4 18:12:49 10° NW 18:16:31 28° N 18:20:13 10° ENE
Cosmos 2228 3.7 18:13:24 10° NNW 18:17:15 31° W 18:21:06 10° SW
Cosmos 2315 Rocket 4.4 18:11:36 10° NE 18:17:29 46° NW 18:23:25 10° WSW
Cosmos 1805 4.2 18:14:24 10° N 18:17:47 28° WNW 18:21:11 10° WSW
Terra 3.2 18:13:42 10° NW 18:18:02 33° NNE 18:22:21 10° E
H-2A R/B 3.2 18:14:18 11° W 18:18:08 30° NW 18:22:08 10° NNE
Cosmos 1666 3.9 18:14:52 10° NE 18:18:10 27° NNW 18:21:08 12° WNW
Cosmos 1606 4.0 18:15:01 11° W 18:18:12 28° SSW 18:21:30 10° SE
CRYOSAT 2 4.4 18:13:23 10° WSW 18:18:19 71° NNW 18:23:15 10° ENE
Iridium 96 4.2 18:16:31 10° N 18:19:01 36° WNW 18:21:21 10° SW
Cosmos 1544 Rocket 4.3 18:15:39 10° N 18:19:32 32° WNW 18:23:24 10° SW
SPOT 5 4.4 18:15:07 10° NW 18:20:03 36° NNE 18:24:52 10° E
USA 116 4.5 18:17:35 10° SW 18:20:15 22° W 18:22:47 10° NNW
Cosmos 1151 Rocket 4.1 18:18:57 11° W 18:22:30 31° SSW 18:26:22 10° SSE
SL-24 DEB 4.3 18:19:03 10° WSW 18:23:52 70° NNW 18:28:38 10° NE
Cosmos 1844 Rocket 4.4 18:22:31 10° NW 18:24:00 11° WNW 18:24:46 11° WNW
SJ 16-02 4.0 18:23:43 10° ENE 18:25:26 12° NE 18:27:10 10° NNE
Meteor 1-28 Rocket 4.2 18:23:39 10° WSW 18:27:02 29° NW 18:30:24 10° N
Cosmos 1727 Rocket 4.3 18:22:19 10° NNW 18:28:09 46° W 18:34:02 10° SSW
Cosmos 1340 Rocket 4.1 18:25:14 11° WNW 18:28:13 24° WSW 18:31:27 10° S
EO 1 Del DPAF 4.5 18:25:01 10° S 18:28:16 26° SW 18:31:10 12° WNW
Cosmos 1400 Rocket 4.4 18:25:05 10° WSW 18:28:22 24° SSW 18:31:40 10° SE
Nadezhda 3 Rocket 4.3 18:22:41 10° N 18:28:42 46° WNW 18:34:44 10° SSW
Resurs 01 Rocket 3.4 18:25:54 10° N 18:29:54 31° NE 18:33:54 10° ESE
Cosmos 1908 4.1 18:28:14 10° NNW 18:31:36 28° W 18:34:57 10° SSW
COBE Rocket 4.5 18:27:22 10° SSW 18:32:16 40° WNW 18:37:11 10° N
CZ-4B R/B 2.6 18:30:29 11° W 18:32:48 22° NW 18:35:19 10° N
Helios 1B rocket 3.8 18:29:32 10° SE 18:33:08 28° SSW 18:36:43 10° W
Sich 1 4.5 18:29:43 10° E 18:33:34 31° NNE 18:37:23 10° NNW
Cosmos 1470 3.6 18:30:46 10° N 18:34:13 29° WNW 18:37:39 10° SW
CZ-4 R/B 3.7 18:30:37 10° NNE 18:34:25 30° E 18:38:12 10° SSE
Cosmos 2221 3.4 18:31:00 10° WNW 18:34:44 31° WSW 18:38:32 10° S
Resurs 1-4 Rocket 3.5 18:30:27 10° ESE 18:35:19 35° SSE 18:40:12 10° SW
MOS 1 Rocket 4.1 18:32:05 10° SSE 18:36:27 34° SW 18:40:29 11° WNW
Cosmos 405 Rocket 4.0 18:35:20 10° N 18:38:38 25° NW 18:41:58 10° W
Cosmos 1733 4.1 18:36:02 10° N 18:39:23 28° WNW 18:42:44 10° WSW
ALOS 4.3 18:35:08 10° NE 18:39:25 33° ESE 18:43:41 10° S
H-2A R/B 3.7 18:35:05 10° N 18:40:07 37° ENE 18:45:11 10° SE
Nadezhda 1 Rocket 4.4 18:34:18 10° NNE 18:40:17 46° NW 18:46:20 10° WSW
Cosmos 2278 Rocket 3.9 18:40:09 11° WNW 18:41:16 11° W 18:42:55 10° W
Cosmos 1553 Rocket 4.5 18:36:56 10° NE 18:42:47 45° NNW 18:48:32 10° W
Okean 2 Rocket 4.0 18:39:37 10° NE 18:43:39 33° NNW 18:47:35 10° W
Intercosmos 25 4.0 18:41:03 10° N 18:43:48 26° WNW 18:46:58 10° WSW
Cosmos 1733 Rocket 4.2 18:40:02 10° ENE 18:44:01 32° N 18:47:48 11° WNW
Aureole 3 4.1 18:42:04 10° N 18:45:00 24° NW 18:47:37 10° WSW
CZ-2C R/B 3.4 18:40:12 10° S 18:45:27 38° WSW 18:50:41 10° NW
Cosmos 1943 Rocket 4.0 18:43:55 10° W 18:45:28 11° WSW 18:47:00 10° SW
CZ-2C R/B 4.5 18:42:20 10° SSW 18:46:16 29° W 18:50:13 10° NW
Cosmos-2242 3.8 18:44:01 10° NW 18:47:53 32° WSW 18:51:42 10° SSW
Cosmos 1184 Rocket 4.3 18:45:29 10° N 18:47:55 19° NW 18:50:21 10° WSW
Cosmos 2123 Rocket 4.4 18:43:25 10° NW 18:49:22 46° WSW 18:55:16 10° S
CZ-4C R/B 4.2 18:49:42 12° W 18:52:23 25° NNW 18:55:25 10° NNE
Okean 1-7 4.5 18:50:13 10° WSW 18:54:01 31° S 18:57:47 10° ESE
Cosmos 2181 Rocket 4.3 18:50:10 10° NNE 18:56:18 47° NW 19:02:23 10° SW
Iridium 4 Rocket 3.8 18:52:03 10° WSW 18:56:49 63° S 19:02:02 10° E
ERS-2 3.7 18:54:13 11° WNW 18:57:01 23° N 19:00:03 10° NE
SKYMED 2 4.3 18:53:50 10° SW 18:57:44 31° WNW 19:01:38 10° N
Cosmos 1606 Rocket 4.2 18:55:14 10° N 18:59:06 32° WNW 19:02:58 10° SW
Cosmos 1869 4.4 18:56:20 12° WNW 18:59:33 29° SW 19:03:03 10° S
Cosmos 1500 4.5 18:58:20 10° NE 19:01:36 27° N 19:04:37 11° WNW
CZ-2D R/B 3.5 18:57:58 10° ESE 19:02:44 34° S 19:07:31 10° WSW
GP-B 3.2 18:58:30 10° SSW 19:03:00 88° ESE 19:07:30 10° NNE
Cosmos 1300 Rocket 4.4 19:00:35 10° NE 19:04:31 32° NNW 19:08:29 10° W
Okean 1 Rocket 3.9 19:00:47 10° NNE 19:04:48 33° NW 19:08:50 10° W
Cosmos 1633 Rocket 4.4 19:02:20 10° E 19:06:13 32° NE 19:10:05 10° NNW
Cosmos 2263 Rocket 4.0 19:05:11 10° NNW 19:06:40 11° NW 19:08:07 10° NW
Cosmos 1825 4.1 19:03:38 10° ESE 19:06:53 27° NE 19:10:07 10° N
Cosmos 1743 3.9 19:03:49 10° NE 19:07:12 28° NNW 19:10:15 12° WNW
Mayak -0.1 19:04:32 10° SSE 19:08:17 31° SW 19:11:47 11° WNW
Cosmos 1536 4.0 19:05:45 10° NE 19:09:14 29° N 19:12:27 12° WNW
ERS-1 Rocket 4.4 19:04:45 10° NNW 19:09:21 33° NE 19:13:57 10° ESE
ADEOS II 3.6 19:04:43 10° E 19:09:33 35° SSE 19:14:23 10° SW
Cosmos 1455 3.2 19:07:02 10° NW 19:10:21 28° WSW 19:13:40 10° SSW
Cosmos 1340 4.2 19:07:33 10° NE 19:10:34 22° N 19:13:25 11° NW
Cosmos 1544 4.2 19:11:21 10° NNE 19:14:30 26° NNW 19:17:32 11° W
ADEOS Rocket 3.9 19:07:25 10° SSW 19:14:46 47° W 19:22:16 10° NNW
Iridium 2 4.1 19:12:46 10° NE 19:16:25 43° NNW 19:20:04 10° W
Cosmos 1812 Rocket 4.3 19:13:38 10° NNW 19:17:37 33° W 19:21:39 10° SSW
SL-16 R/B 3.2 19:14:19 10° W 19:20:08 37° NNW 19:25:57 10° NE
ASTEX 1 3.4 19:15:34 10° SSW 19:20:28 65° WNW 19:25:25 10° N
Cosmos 1975 3.9 19:17:09 10° NE 19:20:45 30° NNW 19:24:09 11° WNW
Cosmos 2228 Rocket 4.2 19:17:05 11° W 19:20:51 32° SW 19:24:48 10° SSE
Cosmos 1346 Rocket 4.3 19:20:32 10° ENE 19:23:51 24° N 19:27:01 11° NW
Cosmos 1953 3.2 19:22:14 10° N 19:25:48 29° WNW 19:29:22 10° WSW
Cosmos 1726 3.1 19:23:25 10° NNW 19:26:30 26° WNW 19:29:36 10° SW
Cosmos 2227 Rocket 4.2 19:25:11 10° NNE 19:26:51 11° N 19:28:31 10° NNW
ARIANE 5 R/B 4.1 19:25:32 10° ESE 19:30:06 33° SSE 19:34:39 10° SW
Cosmos 1758 4.2 19:27:56 10° N 19:31:24 29° NW 19:34:51 10° WSW
Cosmos 1689 Rocket 3.5 19:29:18 11° W 19:31:25 21° NW 19:33:46 10° NNE
Cosmos 1812 4.3 19:28:56 10° WSW 19:32:15 28° SSW 19:35:35 10° SE
Cosmos 2297 Rocket 4.2 19:31:00 10° NNE 19:32:32 11° N 19:34:05 10° NNW
Thor Agena Rocket 4.5 19:29:14 10° S 19:34:02 33° WSW 19:38:37 11° NW
Okean O Rocket 3.9 19:31:34 10° ENE 19:35:33 30° SE 19:39:31 10° S
Cosmos 1842 Rocket 4.4 19:33:07 10° NW 19:37:08 33° WSW 19:41:09 10° SSW
ALOS 2 3.9 19:33:46 10° NW 19:37:43 31° NNE 19:41:40 10° E
Cosmos 1300 3.7 19:35:32 10° NNW 19:38:49 27° W 19:42:07 10° SW
Meteor 2-10 Rocket 4.3 19:35:10 10° NW 19:39:41 32° W 19:44:07 10° SSW
Cosmos 2151 Rocket 4.5 19:36:04 10° NE 19:40:04 33° NNW 19:44:06 10° W
S3M 4.5 19:34:19 10° ENE 19:40:15 46° N 19:46:15 10° WNW
Cosmos 1633 4.3 19:37:37 10° E 19:40:37 25° NE 19:43:38 10° NNW
Cosmos 1766 4.2 19:37:32 10° NNE 19:40:54 28° NW 19:44:16 10° W
Cosmos 1726 Rocket 4.2 19:37:17 10° N 19:41:10 32° WNW 19:45:02 10° SW
USA 186 4.1 19:39:21 10° NE 19:41:12 18° E 19:42:58 10° SE
Cosmos 2369 Rocket 4.1 19:39:57 10° W 19:41:25 11° W 19:42:53 10° WSW
SL-08 R/B 4.1 19:41:22 10° W 19:45:29 31° NNW 19:49:39 10° NE
COSMO-SKYMED 1 3.3 19:42:29 10° WSW 19:46:24 31° WNW 19:50:18 10° N
IDEFIX/ARIANE 42P 4.3 19:41:50 10° E 19:46:42 35° SSE 19:51:33 10° SW
CZ-2C R/B 4.3 19:44:07 10° E 19:48:48 35° SE 19:53:35 10° SSW
Cosmos 1782 4.2 19:47:26 10° W 19:50:58 29° SW 19:54:29 10° SSE
Cosmos 2058 Rocket 3.8 19:47:24 10° N 19:51:18 32° WNW 19:55:11 10° SW
Iridium 96 4.2 19:48:54 10° NNE 19:51:24 36° NW 19:53:44 10° WSW
Cosmos 1666 3.9 19:49:45 10° ENE 19:53:02 27° N 19:56:00 12° NW
Cosmos 1805 4.2 19:49:41 10° NNE 19:53:03 28° NW 19:56:26 10° W
Helios 1A 4.4 19:49:26 10° NNW 19:53:09 28° NNE 19:56:50 10° E
Cosmos 1606 4.0 19:50:02 11° WNW 19:53:13 28° SW 19:56:31 10° SSE
Cosmos 1455 Rocket 3.8 19:49:29 10° NNE 19:53:27 32° NW 19:57:22 10° W
Cosmos 2228 3.7 19:50:13 10° N 19:54:05 31° WNW 19:57:55 10° WSW
H-2A R/B 3.2 19:51:24 11° WNW 19:55:14 30° N 19:59:14 10° NE
Cosmos 1544 Rocket 4.3 19:52:46 10° NNE 19:56:39 32° NW 20:00:31 10° W
Terra 3.2 19:52:35 10° NNW 19:56:55 33° NE 20:01:14 10° ESE
USA 116 4.5 19:54:26 10° WSW 19:57:05 22° WNW 19:59:38 10° N
CRYOSAT 2 4.4 19:52:37 10° W 19:57:33 71° N 20:02:29 10° E
SPOT 5 4.4 19:54:20 10° N 19:59:17 36° NE 20:04:07 10° ESE
Cosmos 1151 Rocket 4.1 19:55:47 11° WNW 19:59:20 31° WSW 20:03:12 10° S
Meteor 1-28 Rocket 4.2 19:58:37 10° W 20:02:00 29° NNW 20:05:22 10° NE
Cosmos 2315 Rocket 4.4 19:56:26 10° ENE 20:02:19 46° N 20:08:16 10° W
SL-24 DEB 4.3 19:57:32 10° W 20:02:21 70° N 20:07:07 10° ENE
SJ 16-02 4.0 20:00:41 10° E 20:02:25 12° ENE 20:04:08 10° NE
EO 1 Del DPAF 4.5 20:00:06 10° SSW 20:03:20 26° WSW 20:06:14 12° NW
Cosmos 1340 Rocket 4.0 20:00:50 11° NW 20:03:48 24° W 20:07:02 10° SSW
Cosmos 1400 Rocket 4.4 20:00:42 10° W 20:03:58 24° SW 20:07:17 10° SSE
Cosmos 1844 Rocket 4.4 20:04:09 10° NNW 20:05:38 11° NW 20:06:23 11° NW
CZ-4B R/B 2.6 20:03:47 11° WNW 20:06:04 22° NNW 20:08:35 10° NNE
Cosmos 1908 4.1 20:03:22 10° N 20:06:44 28° WNW 20:10:05 10° SW
Resurs 01 Rocket 3.4 20:03:28 10° NNE 20:07:28 31° ENE 20:11:27 10° SE
Helios 1B rocket 3.8 20:05:52 10° SSE 20:09:27 28° SW 20:13:03 10° WNW
Cosmos 1470 3.6 20:06:07 10° NNE 20:09:34 29° NW 20:13:00 10° WSW
CZ-4 R/B 3.7 20:06:39 10° NE 20:10:26 30° ESE 20:14:13 10° S
Sich 1 4.5 20:06:40 10° ESE 20:10:31 31° NE 20:14:21 10° N
Cosmos 2221 3.4 20:07:51 10° NW 20:11:34 31° W 20:15:23 10° SSW
COBE Rocket 4.5 20:06:52 10° WSW 20:11:45 40° NW 20:16:40 10° NNE
Cosmos 1727 Rocket 4.3 20:07:03 10° N 20:12:53 46° WNW 20:18:44 10° SW
Nadezhda 3 Rocket 4.3 20:07:23 10° NNE 20:13:25 46° NW 20:19:28 10° WSW
Cosmos 405 Rocket 4.0 20:10:29 10° NNE 20:13:47 25° NNW 20:17:07 10° WNW
Cosmos 1733 4.1 20:11:00 10° NNE 20:14:21 28° NW 20:17:42 10° W
MOS 1 Rocket 4.1 20:11:23 10° S 20:15:45 34° WSW 20:19:47 11° NW
Resurs 1-4 Rocket 3.5 20:11:31 10° SE 20:16:23 35° SSW 20:21:16 10° W
ALOS 4.3 20:13:39 10° ENE 20:17:55 33° SE 20:22:11 10° SSW
H-2A R/B 3.7 20:15:43 10° NNE 20:20:44 37° E 20:25:49 10° SSE
Cosmos 1184 Rocket 4.3 20:18:30 10° NNE 20:20:56 19° NNW 20:23:21 10° W
Okean 2 Rocket 4.0 20:16:58 10° ENE 20:21:00 33° N 20:24:56 10° WNW
Cosmos 1733 Rocket 4.2 20:17:06 10° E 20:21:06 32° NNE 20:24:52 11° NW
Cosmos 2278 Rocket 3.9 20:22:01 11° NW 20:23:06 11° WNW 20:24:45 10° WNW
CZ-2C R/B 4.5 20:20:36 10° SW 20:24:32 29° WNW 20:28:28 10° N
Cosmos-2242 3.8 20:20:51 10° NNW 20:24:43 32° W 20:28:33 10° SW
Nadezhda 1 Rocket 4.4 20:18:55 10° NE 20:24:54 46° NNW 20:30:57 10° W
CZ-4C R/B 4.2 20:23:25 12° WNW 20:26:05 25° N 20:29:08 10° NE
Aureole 3 4.1 20:23:13 10° NNE 20:26:09 24° NNW 20:28:45 10° W
Cosmos 1943 Rocket 4.0 20:25:25 10° WNW 20:26:57 11° W 20:28:30 10° WSW
CZ-2C R/B 3.4 20:21:43 10° SSW 20:26:58 38° W 20:32:12 10° NNW
Cosmos 1553 Rocket 4.5 20:21:35 10° E 20:27:25 45° NNE 20:33:09 10° WNW
Okean 1-7 4.4 20:27:04 10° W 20:30:52 31° SSW 20:34:39 10° SE
ERS-2 3.7 20:28:51 11° NW 20:31:39 23° NNE 20:34:40 10° ENE
Cosmos 2123 Rocket 4.3 20:28:06 10° NNW 20:34:02 46° W 20:39:57 10° SSW
SKYMED 2 4.3 20:31:03 10° WSW 20:34:57 31° NW 20:38:52 10° NNE
Cosmos 1869 4.4 20:31:53 12° NW 20:35:05 29° W 20:38:36 10° SSW
Cosmos 1606 Rocket 4.2 20:32:21 10° NNE 20:36:14 32° NW 20:40:05 10° WSW
Cosmos 1500 4.5 20:33:14 10° E 20:36:29 27° NNE 20:39:30 11° NW
Iridium 4 Rocket 3.8 20:31:50 10° W 20:36:35 63° SSW 20:41:48 10° ESE
GP-B 3.2 20:35:57 10° SW 20:40:27 88° SE 20:44:57 10° NE
Cosmos 2181 Rocket 4.3 20:35:00 10° NE 20:41:07 47° NNW 20:47:12 10° W
Cosmos 1300 Rocket 4.4 20:37:37 10° ENE 20:41:34 32° N 20:45:31 10° WNW
Cosmos 1825 4.1 20:38:27 10° SE 20:41:41 27° ENE 20:44:56 10° NNE
Okean 1 Rocket 3.9 20:37:57 10° NE 20:41:59 33° N 20:46:01 10° WNW
Cosmos 1743 3.9 20:38:54 10° ENE 20:42:17 28° N 20:45:19 12° NW
Cosmos 1633 Rocket 4.4 20:39:24 10° ESE 20:43:17 32° ENE 20:47:10 10° N
Intercosmos 25 4.0 20:40:35 10° NNE 20:43:20 26° NNW 20:46:30 10° W
CZ-2D R/B 3.5 20:39:18 10° SE 20:44:04 34° SSW 20:48:50 10° W
Mayak -0.1 20:41:07 10° S 20:44:51 31° WSW 20:48:21 11° NW
Cosmos 1536 4.0 20:41:27 10° E 20:44:57 29° NNE 20:48:09 12° NW
Cosmos 1455 3.2 20:41:57 10° NNW 20:45:17 28° W 20:48:35 10° SW
Cosmos 1340 4.2 20:42:19 10° ENE 20:45:19 22° NNE 20:48:10 11° NNW
Cosmos 2263 Rocket 4.0 20:46:52 10° N 20:48:20 11° N 20:49:47 10° NNW
Cosmos 1544 4.2 20:45:41 10° NE 20:48:50 26° N 20:51:51 11° WNW
ERS-1 Rocket 4.4 20:44:45 10° N 20:49:21 33° ENE 20:53:57 10° SE
ADEOS II 3.6 20:45:39 10° ESE 20:50:29 35° S 20:55:19 10° WSW
Iridium 2 4.1 20:47:40 10° ENE 20:51:20 43° N 20:54:58 10° WNW
Cosmos 1812 Rocket 4.3 20:50:46 10° N 20:54:46 33° WNW 20:58:48 10° SW
Cosmos 1975 3.9 20:52:55 10° ENE 20:56:30 30° N 20:59:53 11° NW
Cosmos 2228 Rocket 4.2 20:54:35 11° NW 20:58:20 32° WSW 21:02:17 10° S
Cosmos 1346 Rocket 4.3 20:56:01 10° E 20:59:22 24° NNE 21:02:31 11° NNW
ASTEX 1 3.4 20:55:04 10° SW 20:59:59 65° NW 21:04:55 10° NE
Cosmos 1726 3.1 20:57:56 10° N 21:01:02 26° NW 21:04:07 10° WSW
Cosmos 1953 3.2 20:57:55 10° NNE 21:01:29 29° NW 21:05:03 10° W
ADEOS Rocket 3.9 20:54:22 10° SW 21:01:43 47° WNW 21:09:13 10° N
Cosmos 1689 Rocket 3.5 21:01:37 12° WNW 21:03:42 21° NNW 21:06:03 10° NE
SL-16 R/B 3.2 20:59:25 10° NW 21:05:14 37° N 21:11:03 10° ENE
Cosmos 1758 4.2 21:03:41 10° NNE 21:07:08 29° NNW 21:10:36 10° W
Cosmos 1812 4.3 21:04:01 10° WNW 21:07:20 28° SW 21:10:40 10° SSE
Cosmos 2227 Rocket 4.2 21:06:59 10° NE 21:08:39 11° NNE 21:10:18 10° N
ARIANE 5 R/B 4.1 21:05:52 10° SE 21:10:27 33° SSW 21:14:59 10° WSW
USA 186 4.1 21:11:03 10° ENE 21:12:53 18° ESE 21:14:40 10° SSE
Okean O Rocket 3.9 21:09:01 10° E 21:13:00 30° SSE 21:16:58 10° SSW
Cosmos 1300 3.7 21:10:29 10° N 21:13:46 27° WNW 21:17:04 10° WSW
Cosmos 1842 Rocket 4.4 21:10:17 10° NNW 21:14:17 33° W 21:18:18 10° SW
Cosmos 2297 Rocket 4.2 21:12:46 10° NE 21:14:19 11° NNE 21:15:52 10° N
Thor Agena Rocket 4.5 21:09:50 10° SSW 21:14:37 33° W 21:19:12 11° NNW
Cosmos 1633 4.3 21:11:47 10° SE 21:14:46 25° ENE 21:17:47 10° N
ALOS 2 3.9 21:11:10 10° NNW 21:15:06 31° NE 21:19:03 10° ESE
Cosmos 1766 4.2 21:12:54 10° NE 21:16:16 28° NNW 21:19:38 10° WNW
Cosmos 2151 Rocket 4.5 21:13:26 10° ENE 21:17:26 33° N 21:21:28 10° NW
Cosmos 1726 Rocket 4.2 21:14:22 10° NNE 21:18:16 32° NW 21:22:07 10° W
Meteor 2-10 Rocket 4.3 21:16:18 10° NNW 21:20:49 32° WNW 21:25:15 10° SW
Cosmos 2369 Rocket 4.1 21:21:44 10° WNW 21:23:11 11° WNW 21:24:38 10° W
COSMO-SKYMED 1 3.3 21:19:42 10° W 21:23:37 31° NW 21:27:31 10° NNE
Iridium 96 4.2 21:21:17 10° NE 21:23:47 36° NNW 21:26:07 10° W
SL-08 R/B 4.1 21:20:20 10° WNW 21:24:28 31° N 21:28:37 10° ENE
S3M 4.5 21:19:01 10° E 21:24:56 46° NNE 21:30:56 10° NW
Cosmos 1782 4.2 21:23:02 10° WNW 21:26:34 29° WSW 21:30:06 10° S
IDEFIX/ARIANE 42P 4.3 21:22:38 10° ESE 21:27:30 35° S 21:32:22 10° WSW
Cosmos 1666 3.9 21:24:38 10° E 21:27:56 27° NNE 21:30:53 12° NNW
CZ-2C R/B 4.3 21:23:30 10° ESE 21:28:12 35° S 21:32:58 10° WSW
Cosmos 1606 4.0 21:25:03 11° NW 21:28:14 28° WSW 21:31:32 10° SSW
Cosmos 1805 4.2 21:24:57 10° NE 21:28:20 28° NNW 21:31:42 10° WNW
Cosmos 2058 Rocket 3.8 21:24:40 10° NNE 21:28:33 32° NW 21:32:27 10° WSW
Helios 1A 4.4 21:26:04 10° N 21:29:46 28° ENE 21:33:27 10° ESE
Cosmos 1455 Rocket 3.8 21:26:36 10° NE 21:30:33 32° NNW 21:34:29 10° WNW
Cosmos 2228 3.7 21:27:03 10° NNE 21:30:54 31° NW 21:34:45 10° W
H-2A R/B 3.2 21:28:31 11° NW 21:32:20 30° NNE 21:36:20 10° ENE
Cosmos 1544 Rocket 4.3 21:29:53 10° NE 21:33:46 32° NNW 21:37:39 10° WNW
USA 116 4.5 21:31:18 10° W 21:33:56 22° NW 21:36:28 10° NNE
Terra 3.2 21:31:28 10° NNE 21:35:47 33° ENE 21:40:07 10° SE
Cosmos 1151 Rocket 4.1 21:32:38 11° NW 21:36:11 31° W 21:40:02 10° SSW
CRYOSAT 2 4.4 21:31:51 10° NW 21:36:46 71° NNE 21:41:42 10° ESE
Meteor 1-28 Rocket 4.2 21:33:35 10° WNW 21:36:58 29° N 21:40:20 10° ENE
EO 1 Del DPAF 4.5 21:35:09 10° SW 21:38:24 26° W 21:41:17 12° NNW
SPOT 5 4.4 21:33:35 10° NNE 21:38:31 36° E 21:43:20 10° SSE
CZ-4B R/B 2.6 21:37:05 12° NW 21:39:21 22° N 21:41:52 10° NE
SJ 16-02 4.0 21:37:40 10° ESE 21:39:23 12° E 21:41:06 10° ENE
Cosmos 1340 Rocket 4.0 21:36:26 11° NNW 21:39:24 24° WNW 21:42:39 10° SW
Cosmos 1400 Rocket 4.4 21:36:19 10° WNW 21:39:35 24° WSW 21:42:53 10° S
SL-24 DEB 4.3 21:36:01 10° WNW 21:40:50 70° NNE 21:45:36 10° ESE
Cosmos 1908 4.1 21:38:30 10° NNE 21:41:52 28° NW 21:45:12 10° W
Cosmos 1470 3.6 21:41:27 10° NE 21:44:55 29° NNW 21:48:21 10° W
Resurs 01 Rocket 3.4 21:41:02 10° NE 21:45:02 31° ESE 21:49:02 10° SSE
Helios 1B rocket 3.8 21:42:12 10° S 21:45:47 28° WSW 21:49:23 10° NW
CZ-4 R/B 3.7 21:42:40 10° ENE 21:46:28 30° SE 21:50:15 10° SSW
Cosmos 2315 Rocket 4.4 21:41:17 10° E 21:47:10 46° NNE 21:53:06 10° NW
Cosmos 1844 Rocket 4.4 21:45:48 10° N 21:47:17 11° NNW 21:47:59 11° NNW
Sich 1 4.5 21:43:38 10° SE 21:47:28 31° E 21:51:19 10° NNE
Cosmos 2221 3.4 21:44:42 10° NNW 21:48:25 31° WNW 21:52:13 10° SW
Cosmos 405 Rocket 4.0 21:45:38 10° ENE 21:48:55 25° N 21:52:16 10° NW
Cosmos 1733 4.1 21:45:59 10° NE 21:49:19 28° NNW 21:52:40 10° WNW
COBE Rocket 4.5 21:46:20 10° W 21:51:14 40° NNW 21:56:09 10° NE
Cosmos 1184 Rocket 4.3 21:51:30 10° NE 21:53:56 19° N 21:56:21 10° NW
MOS 1 Rocket 4.1 21:50:42 10° SW 21:55:03 34° W 21:59:04 11° NNW
ALOS 4.3 21:52:09 10° E 21:56:26 33° SSE 22:00:42 10° SW
Resurs 1-4 Rocket 3.5 21:52:36 10° SSE 21:57:28 35° SW 22:02:21 10° WNW
Cosmos 1727 Rocket 4.3 21:51:46 10° NNE 21:57:37 46° NW 22:03:28 10° WSW
Nadezhda 3 Rocket 4.3 21:52:06 10° NE 21:58:07 46° NNW 22:04:11 10° W
Cosmos 1733 Rocket 4.2 21:54:12 10° ESE 21:58:11 32° NE 22:01:56 11° NNW
Okean 2 Rocket 4.0 21:54:19 10° E 21:58:22 33° NNE 22:02:17 11° NW
CZ-4C R/B 4.2 21:57:08 12° NW 21:59:48 25° NNE 22:02:50 10° ENE
H-2A R/B 3.7 21:56:20 10° NE 22:01:22 37° ESE 22:06:26 10° S
Cosmos-2242 3.8 21:57:41 10° N 22:01:33 32° NW 22:05:23 10° WSW
CZ-2C R/B 4.5 21:58:51 10° WSW 22:02:47 29° NW 22:06:44 10° NNE
Cosmos 2278 Rocket 3.9 22:03:54 11° NNW 22:04:55 11° NNW 22:06:34 10° NW
ERS-2 3.7 22:03:29 11° N 22:06:16 23° NE 22:09:18 10° E
Aureole 3 4.1 22:04:21 10° NE 22:07:17 24° N 22:09:53 10° NW
Okean 1-7 4.4 22:03:55 10° WNW 22:07:43 31° SW 22:11:30 10° SSE
Cosmos 1943 Rocket 4.0 22:06:55 10° NW 22:08:27 11° WNW 22:10:00 10° WNW
CZ-2C R/B 3.4 22:03:14 10° SW 22:08:29 38° WNW 22:13:43 10° N
Nadezhda 1 Rocket 4.4 22:03:32 10° ENE 22:09:30 46° N 22:15:33 10° WNW
Cosmos 1869 4.4 22:07:26 12° NNW 22:10:38 29° WNW 22:14:08 10° SW
Cosmos 1500 4.5 22:08:07 10° ESE 22:11:23 27° NE 22:14:23 11° NNW
Cosmos 1553 Rocket 4.5 22:06:13 10° ESE 22:12:03 45° NE 22:17:47 10° NNW
SKYMED 2 4.3 22:08:16 10° W 22:12:10 31° NNW 22:16:05 10° NE
Cosmos 1606 Rocket 4.2 22:09:28 10° NE 22:13:21 32° NNW 22:17:12 10° W
Iridium 4 Rocket 3.8 22:11:37 10° NW 22:16:22 63° SW 22:21:35 10° SSE
Cosmos 1825 4.1 22:13:16 10° SSE 22:16:30 27° ESE 22:19:44 10° NE
Cosmos 1743 3.9 22:13:58 10° E 22:17:21 28° NNE 22:20:23 12° NNW
GP-B 3.2 22:13:24 10° WSW 22:17:54 88° SSE 22:22:23 10° ENE
Cosmos 1300 Rocket 4.4 22:14:40 10° E 22:18:36 32° NNE 22:22:34 10° NW
Cosmos 2123 Rocket 4.3 22:12:48 10° NNE 22:18:44 46° NW 22:24:37 10° SW
Okean 1 Rocket 3.9 22:15:08 10° ENE 22:19:09 33° NNE 22:23:12 10° NW
Cosmos 1340 4.2 22:17:04 10° E 22:20:05 22° NE 22:22:56 11° N
Cosmos 1455 3.2 22:16:52 10° N 22:20:12 28° WNW 22:23:30 10° WSW
Cosmos 1633 Rocket 4.4 22:16:29 10° SE 22:20:21 32° E 22:24:14 10° NNE
Cosmos 1536 4.0 22:17:10 10° ESE 22:20:39 29° NE 22:23:51 12° NNW
Mayak -0.1 22:17:42 10° SSW 22:21:27 31° W 22:24:56 11° NNW
Cosmos 1544 4.2 22:20:01 10° ENE 22:23:10 26° NNE 22:26:10 11° NW
CZ-2D R/B 3.5 22:20:37 10° SSE 22:25:23 34° SW 22:30:09 10° WNW
Cosmos 2181 Rocket 4.3 22:19:49 10° ENE 22:25:57 47° N 22:32:02 10° WNW
Iridium 2 4.1 22:22:35 10° E 22:26:15 43° NNE 22:29:53 10° NW
ERS-1 Rocket 4.4 22:24:45 10° NNE 22:29:21 33° E 22:33:57 10° SSE
Cosmos 2263 Rocket 4.0 22:28:32 10° NNE 22:30:00 11° NNE 22:31:27 10° N
ADEOS II 3.6 22:26:35 10° SSE 22:31:25 35° SW 22:36:15 10° W
Cosmos 1812 Rocket 4.3 22:27:55 10° NNE 22:31:55 33° NW 22:35:57 10° W
Cosmos 1975 3.9 22:28:40 10° E 22:32:16 30° NNE 22:35:38 11° NNW
Cosmos 1346 Rocket 4.3 22:31:31 10° ESE 22:34:52 24° NE 22:38:00 11° N
Cosmos 1726 3.1 22:32:26 10° NNE 22:35:32 26° NNW 22:38:38 10° W
Cosmos 2228 Rocket 4.2 22:32:04 11° NNW 22:35:49 32° W 22:39:46 10° SSW
Cosmos 1689 Rocket 3.5 22:33:54 12° NW 22:35:59 21° N 22:38:20 10° ENE
Cosmos 1953 3.2 22:33:36 10° NE 22:37:11 29° NNW 22:40:45 10° WNW
ASTEX 1 3.4 22:34:35 10° WSW 22:39:29 65° NNW 22:44:26 10° ENE
Cosmos 1812 4.3 22:39:06 10° NW 22:42:25 28° WSW 22:45:46 10° S
Intercosmos 25 4.0 22:40:07 10° ENE 22:42:53 26° N 22:46:04 10° WNW
Cosmos 1758 4.2 22:39:25 10° NE 22:42:53 29° N 22:46:20 10° WNW
USA 186 4.1 22:42:45 10° E 22:44:35 18° SE 22:46:21 10° S
ADEOS Rocket 3.9 22:41:19 10° WSW 22:48:40 47° NW 22:56:10 10° NNE
Cosmos 1300 3.7 22:45:26 10° NNE 22:48:44 27° NW 22:52:01 10° W
Cosmos 1633 4.3 22:45:55 10° SSE 22:48:55 25° E 22:51:56 10° NE
SL-16 R/B 3.2 22:44:30 10° NNW 22:50:19 37° NE 22:56:08 10° ESE
Cosmos 2227 Rocket 4.2 22:48:46 10° ENE 22:50:26 11° NE 22:52:06 10° NNE
Okean O Rocket 3.9 22:46:28 10° ESE 22:50:27 30° S 22:54:25 10° WSW
ARIANE 5 R/B 4.1 22:46:12 10° SSE 22:50:46 33° SW 22:55:20 10° WNW
Cosmos 1842 Rocket 4.4 22:47:27 10° N 22:51:27 33° NW 22:55:28 10° WSW
Cosmos 1766 4.2 22:48:16 10° ENE 22:51:38 28° N 22:55:01 10° NW
ALOS 2 3.9 22:48:33 10° N 22:52:29 31° ENE 22:56:26 10° SE
Cosmos 2151 Rocket 4.5 22:50:48 10° E 22:54:49 33° NNE 22:58:51 10° NNW
Thor Agena Rocket 4.5 22:50:25 10° SW 22:55:12 33° WNW 22:59:47 11° N
Cosmos 1726 Rocket 4.2 22:51:28 10° NE 22:55:21 32° NNW 22:59:13 10° WNW
Cosmos 2297 Rocket 4.2 22:54:33 10° ENE 22:56:06 11° NE 22:57:38 10° NE
Iridium 96 4.2 22:53:40 10° ENE 22:56:10 36° N 22:58:30 10° WNW
COSMO-SKYMED 1 3.3 22:56:55 10° WNW 23:00:50 31° N 23:04:44 10° NE
Meteor 2-10 Rocket 4.3 22:57:26 10° N 23:01:57 32° NW 23:06:22 10° WSW
Cosmos 1782 4.2 22:58:39 10° NNW 23:02:10 29° W 23:05:43 10° SSW
Cosmos 1666 3.9 22:59:31 10° ESE 23:02:49 27° NE 23:05:45 12° N
Cosmos 1606 4.0 23:00:05 11° NNW 23:03:15 28° W 23:06:33 10° SW
SL-08 R/B 4.1 22:59:18 10° NNW 23:03:26 31° NNE 23:07:36 10° E
Cosmos 1805 4.2 23:00:13 10° ENE 23:03:35 28° N 23:06:58 10° NW
Cosmos 2369 Rocket 4.1 23:03:29 10° NNW 23:04:57 11° NW 23:06:24 10° WNW
Cosmos 2058 Rocket 3.8 23:01:56 10° NE 23:05:49 32° NNW 23:09:44 10° WNW
Helios 1A 4.4 23:02:41 10° NNE 23:06:24 28° E 23:10:05 10° SE
CZ-2C R/B 4.3 23:02:53 10° SE 23:07:34 35° SSW 23:12:21 10° W
Cosmos 1455 Rocket 3.8 23:03:42 10° ENE 23:07:39 32° NNE 23:11:35 10° NW
Cosmos 2228 3.7 23:03:53 10° NE 23:07:44 31° N 23:11:34 10° WNW
IDEFIX/ARIANE 42P 4.3 23:03:27 10° SE 23:08:19 35° SSW 23:13:11 10° W
H-2A R/B 3.2 23:05:37 11° NNW 23:09:26 30° NE 23:13:26 10° E
S3M 4.5 23:03:41 10° ESE 23:09:37 46° NE 23:15:37 10° NNW
USA 116 4.5 23:08:08 10° WNW 23:10:47 22° NNW 23:13:19 10° NE
Cosmos 1544 Rocket 4.3 23:07:00 10° ENE 23:10:53 32° NNE 23:14:46 10° NW
Meteor 1-28 Rocket 4.2 23:08:32 10° NW 23:11:55 29° NNE 23:15:18 10° E
CZ-4B R/B 2.6 23:10:22 12° NNW 23:12:38 22° NNE 23:15:08 10° ENE
Cosmos 1151 Rocket 4.1 23:09:29 12° NNW 23:13:02 31° WNW 23:16:52 10° SW
EO 1 Del DPAF 4.5 23:10:13 10° WSW 23:13:27 26° WNW 23:16:20 12° N
Terra 3.2 23:10:21 10° NE 23:14:41 33° E 23:19:00 10° SSE
Cosmos 1340 Rocket 4.0 23:12:02 11° N 23:14:59 24° NW 23:18:14 10° WSW
Cosmos 1400 Rocket 4.4 23:11:54 10° NW 23:15:11 24° W 23:18:30 10° SW
CRYOSAT 2 4.4 23:11:05 10° NNW 23:16:00 71° NE 23:20:55 10° SE
SJ 16-02 4.0 23:14:38 10° SE 23:16:22 12° ESE 23:18:05 10° E
Cosmos 1908 4.1 23:13:38 10° NE 23:16:59 28° NNW 23:20:20 10° WNW
SPOT 5 4.4 23:12:48 10° NE 23:17:45 36° ESE 23:22:34 10° S
SL-24 DEB 4.3 23:14:30 10° NW 23:19:19 70° NE 23:24:06 10° SE
Cosmos 1470 3.6 23:16:47 10° ENE 23:20:15 29° N 23:23:42 10° WNW
Helios 1B rocket 3.8 23:18:31 10° SSW 23:22:06 28° W 23:25:43 10° NNW
CZ-4 R/B 3.7 23:18:42 10° E 23:22:29 30° SSE 23:26:16 10° SW
Resurs 01 Rocket 3.4 23:18:36 10° ENE 23:22:36 31° SE 23:26:36 10° S
Cosmos 405 Rocket 4.0 23:20:46 10° E 23:24:04 25° NNE 23:27:25 10° NNW
Cosmos 1733 4.1 23:20:57 10° ENE 23:24:18 28° N 23:27:39 10° NW
Sich 1 4.5 23:20:35 10° SSE 23:24:26 31° ESE 23:28:16 10° NE
Cosmos 2221 3.4 23:21:33 10° N 23:25:16 31° NW 23:29:04 10° WSW
Cosmos 1184 Rocket 4.3 23:24:31 10° ENE 23:26:57 19° NNE 23:29:22 10° NNW
Cosmos 1844 Rocket 4.4 23:27:26 10° NNE 23:28:54 11° N 23:29:36 11° N
COBE Rocket 4.5 23:25:50 10° WNW 23:30:43 40° N 23:35:38 10° ENE
Cosmos 2315 Rocket 4.4 23:26:07 10° ESE 23:32:00 46° NE 23:37:57 10° NNW
CZ-4C R/B 4.2 23:30:50 12° NNW 23:33:30 25° NE 23:36:32 10° E
MOS 1 Rocket 4.1 23:30:01 10° WSW 23:34:22 34° NW 23:38:22 11° N
ALOS 4.3 23:30:40 10° ESE 23:34:56 33° S 23:39:13 10° WSW
Cosmos 1733 Rocket 4.2 23:31:17 10° SE 23:35:15 32° ENE 23:39:01 11° N
Okean 2 Rocket 4.0 23:31:41 10° ESE 23:35:44 33° NE 23:39:37 11° NNW
Cosmos-2242 3.8 23:34:31 10° NNE 23:38:24 32° NNW 23:42:13 10° W
Resurs 1-4 Rocket 3.5 23:33:41 10° S 23:38:33 35° WSW 23:43:26 10° NW
ERS-2 3.7 23:38:06 11° NNE 23:40:53 23° ENE 23:43:55 10° ESE
CZ-2C R/B 4.5 23:37:06 10° W 23:41:02 29° NNW 23:44:59 10° NE
H-2A R/B 3.7 23:36:57 10° ENE 23:41:59 37° SE 23:47:03 10° SSW
Cosmos 1727 Rocket 4.3 23:36:30 10° NE 23:42:20 46° NNW 23:48:12 10° W
Nadezhda 3 Rocket 4.3 23:36:49 10° ENE 23:42:50 46° N 23:48:53 10° WNW
Okean 1-7 4.4 23:40:47 10° NW 23:44:34 31° WSW 23:48:21 10° S
Cosmos 1869 4.4 23:42:59 12° N 23:46:11 29° NW 23:49:40 10° WSW
Cosmos 1500 4.5 23:43:01 10° SE 23:46:16 27° ENE 23:49:16 12° NNE
Cosmos 2278 Rocket 3.9 23:45:49 11° N 23:46:44 11° N 23:48:23 10° NNW
Aureole 3 4.1 23:45:30 10° E 23:48:25 24° NNE 23:51:01 10° NNW
SKYMED 2 4.3 23:45:29 10° WNW 23:49:24 31° N 23:53:18 10° ENE
Cosmos 1943 Rocket 4.0 23:48:24 10° NNW 23:49:57 11° NW 23:51:29 10° NW
CZ-2C R/B 3.4 23:44:45 10° WSW 23:50:00 38° NW 23:55:14 10° NNE
Cosmos 1606 Rocket 4.2 23:46:35 10° ENE 23:50:27 32° N 23:54:19 10° WNW
Cosmos 1825 4.1 23:48:04 10° S 23:51:19 27° SE 23:54:33 10° ENE
Cosmos 1743 3.9 23:49:03 10° ESE 23:52:25 28° NE 23:55:27 12° N
Cosmos 1340 4.2 23:51:50 10° ESE 23:54:51 22° ENE 23:57:41 11° NNE
Cosmos 1455 3.2 23:51:47 10° NNE 23:55:07 28° NNW 23:58:25 10° W
GP-B 3.2 23:50:51 10° W 23:55:21 88° S 23:59:50 10° E
Cosmos 1300 Rocket 4.4 23:51:43 10° ESE 23:55:39 32° NE 23:59:36 10° NNW
Cosmos 1536 4.0 23:52:52 10° SE 23:56:22 29° ENE 23:59:34 12° N
